Regional Weather Roundup
Issued by NWS

Home | Current Version | Previous Version | Text Only | Print | Product List | Glossary Off
Versions: 1 2 3 4 5 6 7 8 9 10 11 12 13 14 15 16 17 18 19 20 21 22 23 24 25 26 27 28 29 30 31 32 33 34 35 36 37 38 39 40 41 42 43 44 45 46 47 48 49 50

000
ASUS43 KFSD 051302
RWRSD

WEATHER ROUNDUP FOR SOUTH DAKOTA
NATIONAL WEATHER SERVICE SIOUX FALLS SD
800 AM CDT TUE MAY 05 2015

NOTE: "FAIR" INDICATES FEW OR NO CLOUDS BELOW 12,000 FEET WITH NO
SIGNIFICANT WEATHER AND/OR OBSTRUCTIONS TO VISIBILITY.


SDZ001>005-009-010-012>017-051400-
NORTHWEST AND NORTH CENTRAL SOUTH DAKOTA

CITY           SKY/WX    TMP DP  RH WIND       PRES   REMARKS
BUFFALO          N/A     49  32  52 SE13      29.90F
FAITH            N/A     49  31  49 S13       30.01S
MOBRIDGE       MOSUNNY   57  37  47 SE10      30.06R
$$

SDZ012>016-024>037-041>051-057-063-072>074-051400-
SOUTHWEST AND SOUTH CENTRAL SOUTH DAKOTA

CITY           SKY/WX    TMP DP  RH WIND       PRES   REMARKS
RAPID CTY ARPT SUNNY     42  36  79 SE9       30.00S
PIERRE         PTSUNNY   54  40  59 SE12      30.06S
CUSTER         CLOUDY    45  40  82 SW3       30.03F
PHILIP         CLOUDY    43  32  65 SE3       30.04S
PINE RIDGE     CLOUDY    45  39  79 S5        30.02S
WINNER         CLOUDY    55  46  71 E12       30.06F
$$

SDZ004>011-016>023-039-040-051400-
NORTHEAST SOUTH DAKOTA

CITY           SKY/WX    TMP DP  RH WIND       PRES   REMARKS
ABERDEEN       MOSUNNY   51  34  52 SE7       30.14S
WATERTOWN      MOSUNNY   54  25  32 E7        30.16R
BROOKINGS      MOSUNNY   54  28  37 E8        30.14S
SISSETON         N/A     50  35  56 CALM      30.16F
$$

SDZ017-020-022-023-036>040-048>070-051400-
SOUTHEAST SOUTH DAKOTA

CITY           SKY/WX    TMP DP  RH WIND       PRES   REMARKS
SIOUX FALLS    PTSUNNY   55  38  52 NE3       30.10F
HURON          MOSUNNY   52  34  50 E10       30.11F
MITCHELL       MOSUNNY   50  36  58 E3        30.10F
YANKTON        PTSUNNY   57  37  47 E10       30.07S
$$

ABBREVIATIONS USED IN REMARKS
   TC - TEMPERATURE IN CELSIUS
  WCI - WIND CHILL INDEX
   HX - HEAT INDEX
  VSB - VISIBILITY




USA.gov is the U.S. government's official web portal to all federal, state and local government web resources and services.